Tracking 30918 objects as of 2-Jul-2025
HD Live streaming from Space Station
objects crossing your sky now

GALAXY 26 (TELSTAR 6)

Track GALAXY 26 (TELSTAR 6) now!
GALAXY 26 (TELSTAR 6) is classified as:


NORAD ID: 25626
Int'l Code: 1999-005A
Perigee: 36,136.9 km
Apogee: 36,173.5 km
Inclination: 10.9 °
Period: 1,454.6 minutes
Semi major axis: 42526 km
RCS: 36.2015 m2 (large)
Launch date: February 15, 1999
Source: United States (US)
Launch site: TYURATAM MISSILE AND SPACE COMPLEX (TTMTR)

24 C-band, 28 Ku-band; U.S., southern Canada, Mexico, Caribbean.
Your satellite tracking list
Your tracking list is empty




NASA's NSSDC Master Catalog

Two Line Element Set (TLE):
1 25626U 99005A   25182.90626762 -.00000083  00000-0  00000-0 0  9992
2 25626  10.8962  50.2136 0004305  99.9849 195.8918  0.98996098 40526
Source of the keplerian elements: AFSPC